timestamp,wind_dir_avg,wind_spd_avg,wind_spd_max_dir,wind_spd_gust,battery_voltage,lat,long
2024-01-08 00:04:01+00:00,319.0,5.99,311.0,8.08,12.33,47.59359,-54.27349
2024-01-08 00:14:00+00:00,303.0,5.89,297.0,7.28,12.25,47.59359,-54.27349
2024-01-08 00:24:00+00:00,327.0,4.02,328.0,6.08,12.25,47.59359,-54.27349
2024-01-08 00:34:00+00:00,332.0,3.84,328.0,6.3,12.25,47.59359,-54.27349
2024-01-08 00:44:00+00:00,340.0,5.36,329.0,7.49,12.25,47.59359,-54.27349
2024-01-08 00:54:00+00:00,321.0,6.29,323.0,8.18,12.25,47.59359,-54.27349
2024-01-08 01:04:00+00:00,322.0,7.36,324.0,9.34,12.25,47.59359,-54.27349
2024-01-08 01:14:00+00:00,319.0,7.31,316.0,8.67,12.25,47.59359,-54.27349
2024-01-08 01:24:00+00:00,320.0,8.14,317.0,9.7,12.25,47.59359,-54.27349
2024-01-08 01:34:00+00:00,322.0,9.46,320.0,11.18,12.25,47.59359,-54.27349
2024-01-08 01:44:00+00:00,324.0,10.58,324.0,12.56,12.25,47.59359,-54.27349
2024-01-08 01:54:00+00:00,323.0,9.9,324.0,11.95,12.25,47.59359,-54.27349
2024-01-08 02:04:00+00:00,326.0,10.42,328.0,11.88,12.25,47.59359,-54.27349
2024-01-08 02:14:00+00:00,333.0,10.46,334.0,13.4,12.17,47.59359,-54.27349
2024-01-08 02:24:00+00:00,333.0,9.61,329.0,12.13,12.17,47.59359,-54.27349
2024-01-08 02:34:00+00:00,329.0,9.16,326.0,11.02,12.17,47.59359,-54.27349
2024-01-08 02:44:00+00:00,330.0,8.83,334.0,10.5,12.17,47.59359,-54.27349
2024-01-08 02:54:00+00:00,340.0,9.15,337.0,11.04,12.17,47.59359,-54.27349
2024-01-08 03:04:00+00:00,335.0,10.77,344.0,12.6,12.17,47.59359,-54.27349
2024-01-08 03:14:00+00:00,331.0,9.74,323.0,11.21,12.17,47.59359,-54.27349
2024-01-08 03:24:00+00:00,327.0,10.87,331.0,12.59,12.17,47.59359,-54.27349
2024-01-08 03:34:00+00:00,333.0,8.64,342.0,10.35,12.17,47.59359,-54.27349
2024-01-08 03:44:00+00:00,336.0,6.72,331.0,7.86,12.17,47.59359,-54.27349
2024-01-08 03:54:00+00:00,338.0,9.01,340.0,10.15,12.17,47.59359,-54.27349
2024-01-08 04:04:00+00:00,342.0,7.63,336.0,9.6,12.17,47.59359,-54.27349
2024-01-08 04:14:00+00:00,350.0,6.52,346.0,7.72,12.17,47.59359,-54.27349
2024-01-08 04:24:00+00:00,352.0,7.08,350.0,8.39,12.17,47.59359,-54.27349
2024-01-08 04:34:00+00:00,343.0,6.5,342.0,7.37,12.17,47.59359,-54.27349
2024-01-08 04:44:00+00:00,344.0,6.47,346.0,7.74,12.17,47.59359,-54.27349
2024-01-08 04:54:00+00:00,350.0,6.57,357.0,7.84,12.17,47.59359,-54.27349
2024-01-08 05:04:00+00:00,346.0,7.84,342.0,9.56,12.17,47.59359,-54.27349
2024-01-08 05:14:00+00:00,352.0,10.08,352.0,11.99,12.09,47.59359,-54.27349
2024-01-08 05:24:00+00:00,353.0,8.29,359.0,9.61,12.09,47.59359,-54.27349
2024-01-08 05:34:00+00:00,3.0,9.61,1.0,11.16,12.09,47.59359,-54.27349
2024-01-08 05:44:00+00:00,356.0,10.19,359.0,11.93,12.09,47.59359,-54.27349
2024-01-08 05:54:00+00:00,351.0,10.85,348.0,12.0,12.09,47.59359,-54.27349
2024-01-08 06:04:00+00:00,3.0,8.63,4.0,11.34,12.09,47.59359,-54.27349
2024-01-08 06:14:00+00:00,6.0,7.7,0.0,9.67,12.09,47.59359,-54.27349
2024-01-08 06:24:00+00:00,358.0,9.04,1.0,10.14,12.09,47.59359,-54.27349
2024-01-08 06:34:00+00:00,356.0,8.74,356.0,9.99,12.09,47.59359,-54.27349
2024-01-08 06:44:00+00:00,354.0,9.53,351.0,10.22,12.09,47.59359,-54.27349
2024-01-08 06:54:00+00:00,357.0,8.22,356.0,9.53,12.09,47.59359,-54.27349
2024-01-08 07:04:00+00:00,9.0,8.39,15.0,9.6,12.09,47.59359,-54.27349
2024-01-08 07:14:00+00:00,5.0,9.39,0.0,11.25,12.09,47.59359,-54.27349
2024-01-08 07:24:00+00:00,16.0,8.12,16.0,9.37,12.09,47.59359,-54.27349
2024-01-08 07:34:00+00:00,18.0,8.59,28.0,10.01,12.09,47.59359,-54.27349
2024-01-08 07:44:00+00:00,11.0,8.79,10.0,9.89,12.09,47.59359,-54.27349
2024-01-08 07:54:00+00:00,1.0,7.38,0.0,9.15,12.09,47.59359,-54.27349
2024-01-08 08:04:00+00:00,359.0,6.33,0.0,7.39,12.09,47.59359,-54.27349
2024-01-08 08:14:00+00:00,0.0,6.85,0.0,8.11,12.01,47.59359,-54.27349
2024-01-08 08:24:00+00:00,1.0,5.65,356.0,7.49,12.01,47.59359,-54.27349
2024-01-08 08:34:00+00:00,6.0,7.79,19.0,9.32,12.01,47.59359,-54.27349
2024-01-08 08:44:00+00:00,0.0,8.14,359.0,9.32,12.01,47.59359,-54.27349
2024-01-08 08:54:00+00:00,14.0,10.23,10.0,12.07,12.01,47.59359,-54.27349
2024-01-08 09:04:00+00:00,22.0,11.03,23.0,13.17,12.01,47.59359,-54.27349
2024-01-08 09:14:00+00:00,15.0,9.17,5.0,11.49,12.01,47.59359,-54.27349
2024-01-08 09:24:00+00:00,19.0,10.07,17.0,11.48,12.01,47.59359,-54.27349
2024-01-08 09:34:00+00:00,10.0,10.98,8.0,13.03,12.01,47.59359,-54.27349
2024-01-08 09:44:00+00:00,16.0,8.7,14.0,10.13,12.01,47.59359,-54.27349
2024-01-08 09:54:00+00:00,10.0,8.77,15.0,10.35,12.01,47.59359,-54.27349
2024-01-08 10:04:00+00:00,8.0,8.55,2.0,9.74,12.01,47.59359,-54.27349
2024-01-08 10:14:01+00:00,4.0,9.08,6.0,10.75,11.93,47.59359,-54.27349
2024-01-08 10:24:01+00:00,0.0,7.6,357.0,9.12,11.93,47.59359,-54.27349
2024-01-08 10:34:01+00:00,347.0,9.86,350.0,10.72,11.93,47.59359,-54.27349
2024-01-08 10:44:01+00:00,355.0,11.07,357.0,12.13,11.93,47.59359,-54.27349
2024-01-08 10:54:01+00:00,353.0,10.64,357.0,11.87,11.93,47.59359,-54.27349
2024-01-08 11:04:01+00:00,358.0,10.88,359.0,12.68,11.93,47.59359,-54.27349
2024-01-08 11:14:00+00:00,357.0,9.04,356.0,10.85,11.93,47.59359,-54.27349
2024-01-08 11:24:00+00:00,3.0,8.24,4.0,9.9,11.93,47.59359,-54.27349
2024-01-08 11:34:00+00:00,4.0,8.86,6.0,10.54,11.93,47.59359,-54.27349
2024-01-08 11:44:00+00:00,1.0,9.29,1.0,10.79,11.93,47.59359,-54.27349
2024-01-08 11:54:00+00:00,357.0,9.57,0.0,10.81,11.93,47.59359,-54.27349
2024-01-08 12:04:00+00:00,354.0,9.49,346.0,12.01,11.93,47.59359,-54.27349
2024-01-08 12:14:00+00:00,347.0,11.26,351.0,12.62,12.57,47.59359,-54.27349
2024-01-08 12:24:00+00:00,355.0,9.86,353.0,12.05,12.57,47.59359,-54.27349
2024-01-08 12:34:00+00:00,351.0,10.13,355.0,12.54,12.57,47.59359,-54.27349
2024-01-08 12:44:00+00:00,1.0,9.57,6.0,11.4,12.57,47.59359,-54.27349
2024-01-08 12:54:00+00:00,357.0,9.3,356.0,10.38,12.57,47.59359,-54.27349
2024-01-08 13:04:00+00:00,352.0,10.08,356.0,11.87,12.57,47.59359,-54.27349
2024-01-08 13:14:00+00:00,356.0,9.68,354.0,11.76,13.29,47.59359,-54.27349
2024-01-08 13:24:00+00:00,347.0,8.71,344.0,10.35,13.29,47.59359,-54.27349
2024-01-08 13:34:00+00:00,347.0,8.49,344.0,9.96,13.29,47.59359,-54.27349
2024-01-08 13:44:00+00:00,355.0,8.91,356.0,10.0,13.29,47.59359,-54.27349
2024-01-08 13:54:00+00:00,359.0,8.78,358.0,10.25,13.29,47.59359,-54.27349
2024-01-08 14:04:00+00:00,359.0,9.02,359.0,10.44,13.29,47.59359,-54.27349
2024-01-08 14:14:00+00:00,356.0,7.74,353.0,9.28,13.84,47.59359,-54.27349
2024-01-08 14:24:00+00:00,347.0,7.18,320.0,9.08,13.84,47.59359,-54.27349
2024-01-08 14:34:00+00:00,348.0,8.25,352.0,10.24,13.84,47.59359,-54.27349
2024-01-08 14:44:00+00:00,348.0,10.25,356.0,12.39,13.84,47.59359,-54.27349
2024-01-08 14:54:00+00:00,340.0,13.12,339.0,16.28,13.84,47.59359,-54.27349
2024-01-08 15:04:00+00:00,337.0,12.79,335.0,16.04,13.84,47.59359,-54.27349
2024-01-08 15:14:00+00:00,339.0,14.46,338.0,16.86,13.6,47.59359,-54.27349
2024-01-08 15:24:00+00:00,338.0,14.93,341.0,17.28,13.6,47.59359,-54.27349
2024-01-08 15:34:00+00:00,334.0,13.65,338.0,15.82,13.6,47.59359,-54.27349
2024-01-08 15:44:00+00:00,336.0,13.82,338.0,16.35,13.6,47.59359,-54.27349
2024-01-08 15:54:00+00:00,338.0,12.95,336.0,15.16,13.6,47.59359,-54.27349
2024-01-08 16:04:00+00:00,338.0,13.58,337.0,15.07,13.6,47.59359,-54.27349
2024-01-08 16:14:00+00:00,337.0,12.91,341.0,15.21,13.68,47.59359,-54.27349
2024-01-08 16:24:00+00:00,335.0,12.8,337.0,14.18,13.68,47.59359,-54.27349
2024-01-08 16:34:00+00:00,337.0,13.49,337.0,15.37,13.68,47.59359,-54.27349
2024-01-08 16:44:00+00:00,338.0,12.65,344.0,14.89,13.68,47.59359,-54.27349
2024-01-08 16:54:00+00:00,337.0,13.21,336.0,15.4,13.68,47.59359,-54.27349
2024-01-08 17:04:00+00:00,337.0,12.26,338.0,14.39,13.68,47.59359,-54.27349
2024-01-08 17:14:00+00:00,338.0,9.99,334.0,13.09,13.53,47.59359,-54.27349
2024-01-08 17:24:00+00:00,335.0,12.71,337.0,15.24,13.53,47.59359,-54.27349
2024-01-08 17:34:00+00:00,340.0,14.06,339.0,16.23,13.53,47.59359,-54.27349
2024-01-08 17:44:00+00:00,340.0,13.73,342.0,16.06,13.53,47.59359,-54.27349
2024-01-08 17:54:00+00:00,339.0,12.58,341.0,14.73,13.53,47.59359,-54.27349
2024-01-08 18:04:00+00:00,338.0,14.0,342.0,15.92,13.53,47.59359,-54.27349
2024-01-08 18:14:00+00:00,334.0,12.64,339.0,14.33,13.13,47.59359,-54.27349
2024-01-08 18:24:00+00:00,337.0,13.05,338.0,14.33,13.13,47.59359,-54.27349
2024-01-08 18:34:00+00:00,338.0,10.93,341.0,12.28,13.13,47.59359,-54.27349
2024-01-08 18:44:00+00:00,339.0,12.23,342.0,14.63,13.13,47.59359,-54.27349
2024-01-08 18:54:00+00:00,331.0,11.94,334.0,14.11,13.13,47.59359,-54.27349
2024-01-08 19:04:00+00:00,331.0,12.51,331.0,14.69,13.13,47.59359,-54.27349
2024-01-08 19:14:00+00:00,335.0,12.55,341.0,14.29,12.81,47.59359,-54.27349
2024-01-08 19:24:00+00:00,337.0,13.38,333.0,15.71,12.81,47.59359,-54.27349
2024-01-08 19:34:00+00:00,340.0,12.48,343.0,14.3,12.81,47.59359,-54.27349
2024-01-08 19:44:00+00:00,336.0,12.28,341.0,15.76,12.81,47.59359,-54.27349
2024-01-08 19:54:00+00:00,330.0,12.07,316.0,13.66,12.81,47.59359,-54.27349
2024-01-08 20:04:00+00:00,338.0,11.88,343.0,15.44,12.81,47.59359,-54.27349
2024-01-08 20:14:00+00:00,334.0,12.5,327.0,14.33,12.41,47.59359,-54.27349
2024-01-08 20:24:00+00:00,337.0,11.7,338.0,14.24,12.41,47.59359,-54.27349
2024-01-08 20:34:00+00:00,338.0,11.35,341.0,12.79,12.41,47.59359,-54.27349
2024-01-08 20:44:00+00:00,338.0,9.85,342.0,11.8,12.41,47.59359,-54.27349
2024-01-08 20:54:00+00:00,331.0,11.68,328.0,14.11,12.41,47.59359,-54.27349
2024-01-08 21:04:00+00:00,335.0,9.87,334.0,11.5,12.41,47.59359,-54.27349
2024-01-08 21:14:00+00:00,343.0,10.24,347.0,12.31,12.41,47.59359,-54.27349
2024-01-08 21:24:00+00:00,333.0,10.33,327.0,11.86,12.41,47.59359,-54.27349
2024-01-08 21:34:00+00:00,340.0,10.53,339.0,12.48,12.41,47.59359,-54.27349
2024-01-08 21:44:00+00:00,334.0,10.21,343.0,12.79,12.41,47.59359,-54.27349
2024-01-08 21:54:00+00:00,334.0,11.29,330.0,13.45,12.41,47.59359,-54.27349
2024-01-08 22:04:00+00:00,343.0,10.18,345.0,11.94,12.41,47.59359,-54.27349
2024-01-08 22:14:00+00:00,343.0,9.74,354.0,11.46,12.33,47.59359,-54.27349
2024-01-08 22:24:00+00:00,338.0,10.82,341.0,12.88,12.33,47.59359,-54.27349
2024-01-08 22:34:00+00:00,341.0,10.86,342.0,12.05,12.33,47.59359,-54.27349
2024-01-08 22:44:00+00:00,338.0,11.06,343.0,12.84,12.33,47.59359,-54.27349
2024-01-08 22:54:00+00:00,340.0,10.98,352.0,13.13,12.33,47.59359,-54.27349
2024-01-08 23:04:00+00:00,338.0,11.45,332.0,13.43,12.33,47.59359,-54.27349
2024-01-08 23:14:00+00:00,339.0,10.85,341.0,13.06,12.33,47.59359,-54.27349
2024-01-08 23:24:00+00:00,332.0,11.92,329.0,13.61,12.33,47.59359,-54.27349
2024-01-08 23:34:00+00:00,330.0,10.26,322.0,11.42,12.33,47.59359,-54.27349
2024-01-08 23:44:00+00:00,339.0,9.7,339.0,10.82,12.33,47.59359,-54.27349
2024-01-08 23:54:00+00:00,337.0,10.11,332.0,11.77,12.33,47.59359,-54.27349
